Regional Weather Roundup
Issued by NWS

Home | Current Version | Previous Version | Graphics & Text | Print | Product List | Glossary On
Versions: 1 2 3 4 5 6 7 8 9 10 11 12 13 14 15 16 17 18 19 20 21 22 23 24 25 26 27 28 29 30 31 32 33 34 35 36 37 38 39 40 41 42 43 44 45 46 47 48 49 50
000
ASUS45 KTFX 210719
RWRMT
MONTANA HOURLY WEATHER ROUNDUP
NATIONAL WEATHER SERVICE GREAT FALLS MT
119 AM MDT THU AUG 21 2014

NOTE: "FAIR" INDICATES FEW OR NO CLOUDS BELOW 12000 FEET WITH NO
SIGNIFICANT WEATHER AND/OR OBSTRUCTIONS TO VISIBILITY.

* THESE STATIONS ARE NOT UNDER NWS QUALITY CONTROL. THEY DO NOT
   REPORT WEATHER SUCH AS PRECIPITATION OR FOG.

MTZ001>007-043-210800-
WEST OF THE DIVIDE
CITY           SKY/WX    TMP DP  RH WIND       PRES   REMARKS
KALISPELL      PTCLDY    57  48  72 N10       29.93R
MISSOULA       MOCLDY    59  52  78 SE10      29.94R
BUTTE          CLOUDY    54  48  80 N3        30.05R
MULLAN PASS    MOCLDY    52  45  77 W5        30.03F
* ESSEX        N/A       50  49  96 NE1        N/A
* LINCOLN      N/A       52  49  90 SE5G14     N/A
* LOOKOUT PASS N/A       52  47  83 NW1        N/A
* POLSON       N/A       57  53  87 N1         N/A
* RONAN APT    MOCLDY    55  52  90 N/A        N/A
* SEELEY LAKE  N/A       54  50  86 E2         N/A
* THOMP F APT  MOCLDY    50  48  93 NE3        N/A
* YAAK HILL    N/A       56  53  90 N/A        N/A
$$

MTZ008-052>055-210800-
SOUTHWEST MONTANA
CITY           SKY/WX    TMP DP  RH WIND       PRES   REMARKS
BOZEMAN        LGT RAIN  59  52  78 SE3       29.99S
DILLON         MOCLDY    52  48  86 S9        30.03R
W YELLOWSTONE  CLOUDY    48  46  93 CALM      30.13R
* THREE FORKS  CLOUDY    61  61 100 N/A        N/A
* BOULDER HILL N/A       54  47  77 VRB7G12    N/A
* MONIDA PASS  N/A       49  49 100 SE12       N/A
* RAYNOLDS PAS N/A       48  29  48 SE6G11     N/A
* WHITEHALL    N/A       57  53  87 SW4        N/A
* WISE RIVER   N/A       50  45  83 NW2G9      N/A
$$

MTZ009>010-012-014-046-048-049-054-210800-
EAST SLOPES AND CENTRAL MONTANA
CITY           SKY/WX    TMP DP  RH WIND       PRES   REMARKS
CUT BANK       CLOUDY    55  52  90 N14       30.02R
GREAT FALLS    LGT RAIN  54  54 100 W7        30.00S
HELENA         CLOUDY    61  46  58 NW16G23   30.01R
MALMSTROM AFB  LGT RAIN  55  54  96 W12       30.01S
* CONRAD       MOCLDY    55  55 100 W9         N/A
* DEARBORN     N/A       59  50  72 SW2        N/A
* EAST GLACIER N/A       51  48  90 SE1        N/A
* MONARCH      N/A       51  49  93 NW6        N/A
* PENDROY      N/A       53  52  96 NW8        N/A
* ROGERS PASS  N/A       49  46  89 NE1        N/A
* SAINT MARY   N/A       52  51  96 N/A        N/A
* SWEET GRASS  N/A       53  53 100 N20        N/A
* WHITE SULPH  N/A       54  49  83 NW11G16    N/A
$$

MTZ011-013-016-021-035-040-045-047-050-051-210800-
NORTH CENTRAL MONTANA
CITY           SKY/WX    TMP DP  RH WIND       PRES   REMARKS
HAVRE          CLOUDY    61  57  87 NE5       29.92R
LEWISTOWN      MOCLDY    57  52  83 N7        29.98S
* FORT BENTON  MOCLDY    57  55  93 SW8       29.98R
* CHESTER      N/A       56  52  87 NW3        N/A
* DENTON       N/A       59  53  81 W5         N/A
* GEYSER       N/A       56  52  87 NE1        N/A
* JUDITH GAP   N/A       54  53  96 NW18G24    N/A
* LOMA         N/A       58  57  96 SW4        N/A
$$

MTZ017>020-022>027-061-062-210800-
NORTHEAST MONTANA
CITY           SKY/WX    TMP DP  RH WIND       PRES   REMARKS
GLASGOW        CLOUDY    64  59  84 N8        29.83S
GLENDIVE       CLEAR     61  55  81 NW10      29.84S
JORDAN         MOCLDY    63  54  73 W6        29.87S
SIDNEY         CLEAR    N/A N/A N/A N/A        N/A
WOLF POINT     PTCLDY    59  54  84 SW3       29.82S
* BEAVER HILL  N/A       60  57  90 S1         N/A
* CIRCLE       N/A       57  55  93 N/A        N/A
* LINDSAY DVD  N/A       60  55  84 NW8        N/A
* SACO         N/A       62  59  90 S4         N/A
$$

MTZ028>042-056>058-210800-
SOUTHCENTRAL AND SOUTHEAST MONTANA
CITY           SKY/WX    TMP DP  RH WIND       PRES   REMARKS
BAKER          CLEAR     57  55  93 CALM      29.87R
BILLINGS       CLOUDY    61  57  87 SW9       29.93S
LIVINGSTON     CLOUDY    63  46  54 SW18      29.97S
MILES CITY     PTCLDY    59  48  67 W10       29.86R
* LAUREL APT   CLOUDY    59  55  87 N/A        N/A
* ROUNDUP APT  CLOUDY    59  54  84 N/A        N/A
* ALZADA       N/A       61  51  70 W1         N/A
* HYSHAM       N/A       62  52  70 W4         N/A
* LAME DEER    N/A       62  45  54 W8         N/A
* REED POINT   N/A       58  56  93 W1         N/A
* ROSCOE HILL  N/A       55  48  77 S8         N/A
$$

REGIONAL REPORTS...DAKOTAS
CITY           SKY/WX    TMP DP  RH WIND       PRES   REMARKS
WILLISTON      CLEAR     61  59  93 CALM      29.80S
DICKINSON      CLEAR     59  57  93 W8        29.80S
BEACH          N/A       55  55 100 S3        29.85S
CROSBY         FOG       59  59 100 NW6       29.81R VSB 1 3/4
TIOGA          FOG       55  55 100 W3        29.83S
WATFORD CITY   CLEAR     55  55 100 SW3       29.78F
BISMARCK       CLOUDY    70  68  93 NW5       29.73S
GRAND FORKS    CLOUDY    70  66  87 SE12      29.72F
FARGO          CLOUDY    72  66  81 E12       29.73F
BUFFALO SD     PTCLDY    59  55  87 W6        29.79S
RAPID CITY     PTCLDY    66  57  73 N6        29.85R
$$

REGIONAL REPORTS...WYOMING/IDAHO/WASHINGTON
CITY           SKY/WX    TMP DP  RH WIND       PRES   REMARKS
GILLETTE       CLOUDY    63  50  63 W9        29.96R
SHERIDAN       CLOUDY    63  48  58 NW15      29.95R
CODY           MOCLDY    55  46  72 CALM      30.00F
YELLOWSTONE LA MOCLDY    43  43 100 CALM      30.19F
SALMON         CLOUDY    55  54  96 CALM      30.01F
MULLAN PASS    MOCLDY    52  45  77 W5        30.03S
SAND POINT     PTCLDY    55  55 100 CALM      29.93R
SPOKANE        PTCLDY    63  57  81 NE6       29.91R
$$

REGIONAL REPORTS...ALBERTA
CITY           SKY/WX    TMP DP  RH WIND       PRES   REMARKS
CALGARY        MOCLDY    52  48  86 W3        30.08S
LETHBRIDGE     LGT RAIN  54  50  86 NW7       30.04R
MEDICINE HAT   LGT RAIN  59  54  84 N10       29.97R
EDMONTON       FAIR      45  43  93 NW5       30.07R
WATERTON GATE  N/A       48  46  93 N5         N/A
CARDSTON       N/A       50  50 100 N7         N/A
MILK RIVER     N/A       54  52  93 N16        N/A
$$

REGIONAL REPORTS...SASKATCHEWAN
CITY           SKY/WX    TMP DP  RH WIND       PRES   REMARKS
SWIFT CURRENT  LGT RAIN  59  57  93 W8        29.91S
REGINA         FAIR      59  59 100 NW6       29.83R
VAL MARIE      N/A       59  57  93 NW13G18    N/A
ASSINIBOIA     N/A       57  55  93 NW6        N/A
CORONACH       N/A       55  55 100 W2         N/A

$$



USA.gov is the U.S. government's official web portal to all federal, state and local government web resources and services.